User: anonymous   Login
Location: Monroe
(41.9160°N, 83.3980°W)
Time: 04:53:59
(UTC-04:00)
Language:

deb Explorer IX - Orbit

View from above orbital plane
View from above orbital plane
View from above satellite
View from above satellite

Ground track
Ground track

The orbit data is extracted from the following two-line orbital elements,

1    85U 61004C   18110.99079108 +.00001730 +00000-0 +40775-3 0  9995
2    85 038.7755 076.5693 0389335 294.8986 061.1771 14.18376473819019
Epoch (UTC): 20 April 2018 23:46:44
Eccentricity: 0.0389335
inclination: 38.7755°
perigee height: 550 km
apogee height: 1111 km
right ascension of ascending node: 76.5693°
argument of perigee: 294.8986°
revolutions per day: 14.18376473
mean anomaly at epoch: 61.1771°
orbit number at epoch: 81901

The dashed part of the orbit path shows where the satellite is in the earth's shadow,  

DLR